TimeEST,TemperatureF,Dew PointF,Humidity,Sea Level PressureIn,VisibilityMPH,Wind Direction,Wind SpeedMPH,Gust SpeedMPH,PrecipitationIn,Events,Conditions,WindDirDegrees,DateUTC
12:15 AM,29.5,29.5,100,30.13,5.0,Calm,Calm,-,N/A,,Clear,0,2013-11-03 04:15:00
12:34 AM,28.9,28.9,100,30.13,7.0,Calm,Calm,-,N/A,,Scattered Clouds,0,2013-11-03 04:34:00
12:55 AM,28.4,28.4,100,30.14,3.0,Calm,Calm,-,N/A,,Scattered Clouds,0,2013-11-03 04:55:00
1:15 AM,28.6,28.6,100,30.14,10.0,Calm,Calm,-,N/A,,Mostly Cloudy,0,2013-11-03 05:15:00
1:34 AM,28.4,28.4,100,30.15,10.0,Calm,Calm,-,N/A,,Overcast,0,2013-11-03 05:34:00
1:55 AM,29.1,29.1,100,30.16,10.0,Calm,Calm,-,N/A,,Overcast,0,2013-11-03 05:55:00
1:15 AM,29.1,29.1,100,30.16,10.0,Calm,Calm,-,N/A,,Mostly Cloudy,0,2013-11-03 06:15:00
1:35 AM,28.4,28.4,100,30.17,10.0,Calm,Calm,-,N/A,,Mostly Cloudy,0,2013-11-03 06:35:00
1:55 AM,28.4,28.4,100,30.17,10.0,Calm,Calm,-,N/A,,Overcast,0,2013-11-03 06:55:00
2:15 AM,28.4,28.4,100,30.17,10.0,North,3.5,-,N/A,,Overcast,10,2013-11-03 07:15:00
2:34 AM,28.0,28.0,100,30.18,10.0,Calm,Calm,-,N/A,,Scattered Clouds,0,2013-11-03 07:34:00
2:55 AM,28.4,28.4,100,30.19,10.0,Calm,Calm,-,N/A,,Clear,0,2013-11-03 07:55:00
3:15 AM,26.1,26.1,100,30.20,10.0,Calm,Calm,-,N/A,,Clear,0,2013-11-03 08:15:00
3:34 AM,26.1,26.1,100,30.21,10.0,Calm,Calm,-,N/A,,Clear,0,2013-11-03 08:34:00
3:55 AM,26.1,26.1,100,30.21,1.0,Calm,Calm,-,N/A,,Mist,0,2013-11-03 08:55:00
4:14 AM,25.3,25.3,100,30.22,10.0,Calm,Calm,-,N/A,,Clear,0,2013-11-03 09:14:00
4:35 AM,25.5,25.5,100,30.23,10.0,Calm,Calm,-,N/A,,Clear,0,2013-11-03 09:35:00
4:55 AM,23.9,23.7,99,30.23,10.0,Calm,Calm,-,N/A,,Clear,0,2013-11-03 09:55:00
5:14 AM,23.5,23.4,99,30.24,10.0,Calm,Calm,-,N/A,,Clear,0,2013-11-03 10:14:00
5:35 AM,23.5,23.5,100,30.26,10.0,Calm,Calm,-,N/A,,Clear,0,2013-11-03 10:35:00
5:54 AM,24.3,24.3,100,30.26,10.0,Calm,Calm,-,N/A,,Clear,0,2013-11-03 10:54:00
6:15 AM,22.5,22.1,99,30.26,10.0,Calm,Calm,-,N/A,,Clear,0,2013-11-03 11:15:00
6:35 AM,21.2,20.8,99,30.27,10.0,Calm,Calm,-,N/A,,Clear,0,2013-11-03 11:35:00
6:54 AM,21.2,20.3,96,30.28,10.0,Calm,Calm,-,N/A,,Clear,0,2013-11-03 11:54:00
7:15 AM,22.1,21.9,99,30.28,10.0,Calm,Calm,-,N/A,,Clear,0,2013-11-03 12:15:00
7:34 AM,21.2,20.8,99,30.29,10.0,Calm,Calm,-,N/A,,Clear,0,2013-11-03 12:34:00
7:55 AM,21.0,20.1,96,30.31,10.0,Calm,Calm,-,N/A,,Clear,0,2013-11-03 12:55:00
8:15 AM,24.4,23.9,98,30.31,10.0,Calm,Calm,-,N/A,,Clear,0,2013-11-03 13:15:00
8:34 AM,28.4,28.2,99,30.32,10.0,Calm,Calm,-,N/A,,Clear,0,2013-11-03 13:34:00
8:55 AM,28.4,28.2,99,30.32,10.0,Calm,Calm,-,N/A,,Clear,0,2013-11-03 13:55:00
9:14 AM,31.1,29.5,94,30.33,10.0,Calm,Calm,-,N/A,,Clear,0,2013-11-03 14:14:00
9:35 AM,33.3,30.2,89,30.33,10.0,ESE,4.6,-,N/A,,Clear,110,2013-11-03 14:35:00
9:55 AM,35.1,31.1,85,30.33,10.0,East,4.6,-,N/A,,Clear,100,2013-11-03 14:55:00
10:15 AM,35.8,30.7,82,30.33,10.0,East,4.6,-,N/A,,Clear,90,2013-11-03 15:15:00
10:35 AM,37.2,31.1,79,30.34,10.0,ESE,4.6,-,N/A,,Clear,110,2013-11-03 15:35:00
10:54 AM,38.3,30.4,73,30.34,10.0,SE,6.9,-,N/A,,Scattered Clouds,130,2013-11-03 15:54:00
11:15 AM,38.3,29.3,70,30.35,10.0,ESE,6.9,-,N/A,,Mostly Cloudy,120,2013-11-03 16:15:00
11:34 AM,39.9,28.9,65,30.35,10.0,SSE,4.6,-,N/A,,Scattered Clouds,150,2013-11-03 16:34:00
11:55 AM,39.4,29.7,68,30.35,10.0,SE,3.5,-,N/A,,Mostly Cloudy,130,2013-11-03 16:55:00
12:15 PM,39.4,28.8,66,30.34,10.0,SSE,5.8,-,N/A,,Mostly Cloudy,150,2013-11-03 17:15:00
12:34 PM,41.2,28.4,60,30.34,10.0,SSE,8.1,-,N/A,,Mostly Cloudy,150,2013-11-03 17:34:00
12:55 PM,40.1,28.8,64,30.34,10.0,SE,5.8,-,N/A,,Overcast,130,2013-11-03 17:55:00
1:14 PM,40.6,29.5,64,30.33,10.0,SE,6.9,-,N/A,,Overcast,130,2013-11-03 18:14:00
1:35 PM,41.0,29.3,63,30.34,10.0,SSE,8.1,-,N/A,,Overcast,150,2013-11-03 18:35:00
1:55 PM,41.0,28.9,62,30.33,10.0,SSE,6.9,-,N/A,,Overcast,150,2013-11-03 18:55:00
2:14 PM,41.0,29.5,64,30.33,10.0,SSE,9.2,-,N/A,,Overcast,150,2013-11-03 19:14:00
2:35 PM,41.0,29.1,63,30.33,10.0,SE,8.1,-,N/A,,Overcast,140,2013-11-03 19:35:00
2:54 PM,41.0,28.8,62,30.33,10.0,South,9.2,-,N/A,,Overcast,170,2013-11-03 19:54:00
3:15 PM,41.0,28.8,62,30.34,10.0,ESE,8.1,-,N/A,,Overcast,120,2013-11-03 20:15:00
3:35 PM,41.4,29.3,62,30.34,10.0,SE,8.1,-,N/A,,Overcast,140,2013-11-03 20:35:00
3:54 PM,41.0,29.7,64,30.34,10.0,SSE,10.4,-,N/A,,Overcast,150,2013-11-03 20:54:00
4:15 PM,40.6,30.9,68,30.34,10.0,SSE,6.9,-,N/A,,Overcast,160,2013-11-03 21:15:00
4:34 PM,41.0,31.1,68,30.35,10.0,SE,9.2,-,N/A,,Overcast,140,2013-11-03 21:34:00
4:55 PM,40.6,30.9,68,30.34,10.0,SE,8.1,-,N/A,,Overcast,140,2013-11-03 21:55:00
5:15 PM,39.6,30.2,69,30.35,10.0,SSE,8.1,-,N/A,,Overcast,150,2013-11-03 22:15:00
5:34 PM,38.3,30.2,73,30.36,10.0,SSE,6.9,-,N/A,,Mostly Cloudy,150,2013-11-03 22:34:00
5:55 PM,38.5,29.8,71,30.36,10.0,SE,5.8,-,N/A,,Overcast,140,2013-11-03 22:55:00
6:14 PM,38.3,29.8,72,30.37,10.0,SE,5.8,-,N/A,,Overcast,140,2013-11-03 23:14:00
6:35 PM,38.3,29.5,71,30.37,10.0,SSE,4.6,-,N/A,,Overcast,150,2013-11-03 23:35:00
6:55 PM,38.3,28.9,69,30.38,10.0,SSE,5.8,-,N/A,,Overcast,150,2013-11-03 23:55:00
7:14 PM,38.3,29.1,70,30.38,10.0,SE,8.1,-,N/A,,Overcast,130,2013-11-04 00:14:00
7:35 PM,38.3,28.6,68,30.38,10.0,SSE,5.8,-,N/A,,Overcast,150,2013-11-04 00:35:00
7:54 PM,38.3,28.9,69,30.38,10.0,SE,6.9,-,N/A,,Overcast,130,2013-11-04 00:54:00
8:15 PM,38.3,29.3,70,30.38,10.0,SE,8.1,-,N/A,,Overcast,130,2013-11-04 01:15:00
8:35 PM,38.3,30.0,72,30.38,10.0,ESE,6.9,-,N/A,,Overcast,120,2013-11-04 01:35:00
8:54 PM,38.3,30.6,74,30.38,10.0,ESE,6.9,-,N/A,,Overcast,120,2013-11-04 01:54:00
9:15 PM,36.0,29.3,77,30.38,10.0,ESE,8.1,-,N/A,,Mostly Cloudy,120,2013-11-04 02:15:00
9:34 PM,34.3,29.7,83,30.38,10.0,ESE,6.9,-,N/A,,Scattered Clouds,110,2013-11-04 02:34:00
9:55 PM,33.3,29.3,85,30.38,10.0,ESE,8.1,-,N/A,,Clear,110,2013-11-04 02:55:00
10:14 PM,33.3,30.2,89,30.39,10.0,ESE,4.6,-,N/A,,Clear,110,2013-11-04 03:14:00
10:35 PM,33.3,30.9,91,30.40,10.0,ESE,4.6,-,N/A,,Clear,110,2013-11-04 03:35:00
10:54 PM,32.0,30.2,93,30.39,10.0,ESE,5.8,-,N/A,,Clear,110,2013-11-04 03:54:00